Overview Statistics Trail Chart Weather Telemetry Raw packets
 

This is the latest recevied weather packets stored in our database for station/object KB4MOX. If no packets are shown the sender has not sent any weather packets the latest 10 day(s).

<< 58 59 60 61 62 63 64 >>
Time Temp. Humidity Pressure Rain* Wind** Luminosity Snow
1788221204 28.89° C 61% 1017.9 hPa 0 mm - 1 W/m² -
1788220899 29.44° C 60% 1017.8 hPa 0 mm - 2 W/m² -
1788220592 29.44° C 58% 1017.9 hPa 0 mm - 3 W/m² -
1788220288 30° C 57% 1017.8 hPa 0 mm - 6 W/m² -
1788219987 30.56° C 56% 1017.8 hPa 0 mm - 8 W/m² -
1788219683 31.11° C 54% 1017.8 hPa 0 mm - 11 W/m² -
1788219378 31.11° C 53% 1017.8 hPa 0 mm - 14 W/m² -
1788219074 31.67° C 52% 1017.7 hPa 0 mm - 17 W/m² -
1788218769 31.67° C 50% 1018.1 hPa 0 mm - 20 W/m² -
1788218465 32.22° C 49% 1018.2 hPa 0 mm - 24 W/m² -
1788218161 32.78° C 48% 1018.1 hPa 0 mm - 40 W/m² -
1788217875 32.78° C 47% 1018.1 hPa 0 mm - 48 W/m² -
1788217552 32.78° C 46% 1018.2 hPa 0 mm - 58 W/m² -
1788217251 32.78° C 47% 1018.1 hPa 0 mm - 68 W/m² -
1788216960 33.33° C 45% 1018.2 hPa 0 mm - 79 W/m² -
1788216641 33.33° C 45% 1018.2 hPa 0 mm - 89 W/m² -
1788216336 33.89° C 43% 1018.1 hPa 0 mm - 102 W/m² -
1788216032 33.89° C 43% 1018.1 hPa 0 mm - 115 W/m² -
1788215727 33.89° C 43% 1018.2 hPa 0 mm - 128 W/m² -
1788215424 33.89° C 43% 1018.2 hPa 0 mm - 143 W/m² -
1788215120 33.89° C 45% 1017.9 hPa 0 mm - 160 W/m² -
1788214819 33.89° C 44% 1017.9 hPa 0 mm - 174 W/m² -
1788214515 34.44° C 44% 1017.8 hPa 0 mm - 189 W/m² -
1788214210 33.89° C 44% 1017.9 hPa 0 mm - 204 W/m² -
1788213905 33.89° C 42% 1017.9 hPa 0 mm - 220 W/m² -

* Rain latest hour (hover to see other rain measurements)
** Current wind speed in m/s (hover to see current wind gust speed)